GW2299 Weather Reports


Display with metric or nautical units.
time (UTC)temp
F
wind
direction
speed
MPH
gust
MPH
rain 1hr
in
rain 24hr
in
rain mn
in
humidity
%
barometer
mb
20260504003033 52 83 0.0 0.0 0.00 0.00 0.00 83 1019.7
20260504001536 51 0 0.0 0.0 0.00 0.00 0.00 82 1019.8
20260504000031 52 0 0.0 0.0 0.00 0.00 0.00 81 1019.8
20260503234531 52 0 0.0 0.0 0.00 0.00 0.00 81 1019.9
20260503233029 52 0 0.0 0.0 0.00 0.00 0.00 81 1020.0
20260503231530 52 0 0.0 0.0 0.00 0.00 0.00 81 1020.1
20260503230034 52 0 0.0 1.0 0.00 0.00 0.00 79 1020.2
20260503224534 52 0 0.0 0.0 0.00 0.00 0.00 79 1020.3
20260503223030 53 0 0.0 0.0 0.00 0.00 0.00 78 1020.3
20260503221527 53 0 0.0 0.0 0.00 0.00 0.00 78 1020.1
20260503220031 53 0 0.0 0.0 0.00 0.00 0.00 77 1020.1
20260503214529 53 0 0.0 0.0 0.00 0.00 0.00 76 1020.1
20260503213030 54 0 0.0 0.0 0.00 0.00 0.00 76 1020.0
20260503211529 54 0 0.0 1.0 0.00 0.00 0.00 75 1020.0
20260503210033 54 0 0.0 0.0 0.00 0.00 0.00 76 1020.0
20260503204529 54 0 0.0 0.0 0.00 0.00 0.00 75 1020.0
20260503203032 54 0 0.0 1.0 0.00 0.00 0.00 74 1020.0
20260503201528 55 0 0.0 0.0 0.00 0.00 0.00 73 1019.8
20260503200028 56 0 0.0 0.0 0.00 0.00 0.00 71 1019.9
20260503194533 57 0 0.0 1.0 0.00 0.00 0.00 68 1019.9
20260503193032 55 0 0.0 2.0 0.00 0.00 0.00 73 1019.7
20260503191536 56 0 0.0 0.0 0.00 0.00 0.00 72 1019.7
20260503190030 57 0 0.0 0.0 0.00 0.00 0.00 71 1019.6
20260503184530 57 0 0.0 0.0 0.00 0.00 0.00 70 1019.5
20260503183032 58 0 0.0 0.0 0.00 0.00 0.00 68 1019.4
20260503181530 59 0 0.0 1.0 0.00 0.00 0.00 66 1019.2
20260503180042 60 0 0.0 0.0 0.00 0.00 0.00 64 1019.1
20260503174529 61 0 0.0 3.0 0.00 0.00 0.00 64 1019.0
20260503173030 62 290 1.0 6.0 0.00 0.00 0.00 62 1018.9
20260503171531 64 205 1.0 6.0 0.00 0.00 0.00 56 1018.9
20260503081527 61 272 0.0 2.0 0.00 0.00 0.00 56 1021.6
20260503071528 57 0 0.0 0.0 0.00 0.00 0.00 54 1021.7
20260503054535 51 0 0.0 0.0 0.00 0.00 0.00 63 1021.5
20260503053029 50 0 0.0 0.0 0.00 0.00 0.00 67 1021.5
20260503051525 49 0 0.0 0.0 0.00 0.00 0.00 61 1021.4
20260503050032 49 0 0.0 0.0 0.00 0.00 0.00 58 1021.4
20260503044525 50 0 0.0 0.0 0.00 0.00 0.00 56 1021.3
20260503043038 49 0 0.0 0.0 0.00 0.00 0.00 56 1021.1
20260503041528 48 0 0.0 0.0 0.00 0.00 0.00 59 1021.1
20260503040028 49 0 0.0 0.0 0.00 0.00 0.00 57 1021.0
20260503034526 48 0 0.0 0.0 0.00 0.00 0.00 59 1021.0
20260503033033 48 0 0.0 0.0 0.00 0.00 0.00 59 1021.0
20260503031528 47 0 0.0 0.0 0.00 0.00 0.00 60 1021.1
20260503030029 48 0 0.0 0.0 0.00 0.00 0.00 58 1021.3
20260503024529 49 0 0.0 0.0 0.00 0.00 0.00 57 1021.1
20260503023028 49 0 0.0 0.0 0.00 0.00 0.00 58 1021.4
20260503021540 48 0 0.0 0.0 0.00 0.00 0.00 58 1021.5
20260503020028 49 0 0.0 0.0 0.00 0.00 0.00 58 1021.6
20260503014527 50 0 0.0 0.0 0.00 0.00 0.00 56 1021.7
20260503013029 48 0 0.0 0.0 0.00 0.00 0.00 58 1021.7
20260503011526 49 0 0.0 0.0 0.00 0.00 0.00 58 1021.7
20260503010028 49 0 0.0 0.0 0.00 0.00 0.00 56 1021.9
20260503004525 49 0 0.0 0.0 0.00 0.00 0.00 55 1022.0